RH
41 44 45 45 48 49 49 50 50 49 49 48 46 44 42 43 44 47 51 58 66 73 76 80 81 79 82 86 88 84 85 82 88 76 74 73 68 65 71 72 70 72 67
50 52 53 52 53 54 56 57 58 58 57 56 55 54 52 50 48 48 50 55 62 67 70 73 73 74 78 84 88 86 85 83 85 86 77 80 82 75 79 81 80 68 65
59 58 57 57 59 59 58 58 57 56 56 56 58 59 59 57 55 53 51 52 57 62 68 72 73 74 77 76 84 88 84 85 88 90 85 82 90 90 84 87 84 70 71
58 57 57 59 59 57 56 55 54 54 54 54 54 54 56 57 57 56 52 56 61 65 68 71 75 78 79 77 77 85 90 88 87 91 88 90 92 89 86 91 87 81 75
50 52 53 56 53 53 52 52 54 55 54 53 53 53 53 53 52 53 56 62 68 69 70 71 73 76 77 79 84 83 86 92 88 91 91 96 97 97 94 93 93 88 89
52 53 52 54 55 56 55 54 55 54 52 51 52 55 54 54 54 54 56 69 71 74 75 75 77 79 81 81 80 79 86 88 87 85 93 96 95 92 96 97 95 95 94
50 48 49 46 46 47 49 48 48 46 44 49 51 53 55 54 55 54 59 64 76 76 78 80 81 80 80 81 80 79 88 88 96 97 96 96 91 94 98 99 97 90 83
43 44 45 46 46 45 45 43 42 43 45 44 46 51 53 55 53 50 53 65 69 76 80 82 83 84 87 84 83 84 92 95 99 98 100 98 99 94 96 95 97 93 81
38 37 40 40 40 40 41 39 36 38 42 39 38 42 51 50 43 41 41 56 69 75 76 77 76 81 82 85 99 98 89 97 98 100 99 100 100 99 100 100 98 90 83
28 30 31 33 35 36 35 35 33 34 34 36 34 36 40 42 37 36 40 58 61 71 72 73 85 85 86 89 97 99 97 95 98 100 100 100 99 100 100 98 94 86 94
27 28 28 30 30 30 30 31 32 30 33 33 33 33 33 36 35 38 43 56 64 66 60 66 75 89 93 94 96 99 99 100 100 100 100 100 99 99 100 98 95 86 91
29 30 30 30 30 29 29 31 31 30 30 34 33 33 37 36 41 46 48 57 62 70 68 68 77 89 94 98 100 99 100 100 100 100 100 100 99 99 95 94 93 88 64
31 32 33 34 32 32 33 33 33 31 30 32 33 38 37 36 49 49 55 61 73 75 74 76 84 93 97 99 99 100 100 100 100 99 98 97 97 96 98 99 96 87 74
35 36 37 37 38 38 39 38 36 35 35 36 39 42 47 50 53 54 62 70 76 75 80 84 93 96 99 100 100 100 100 100 100 99 100 100 98 100 99 94 96 97 97
39 39 40 42 43 43 42 43 41 40 42 50 53 54 55 56 54 59 68 76 76 75 85 84 94 96 97 98 100 100 100 100 100 100 100 100 99 99 100 99 98 98 91
42 43 45 46 47 48 48 46 46 49 53 56 57 59 56 56 55 67 70 73 78 80 77 84 96 97 97 97 99 99 100 99 98 98 98 98 98 97 97 98 97 93 83
45 47 48 51 51 50 52 56 60 62 59 58 56 55 56 58 65 66 71 74 74 74 82 88 96 97 98 98 100 100 99 98 98 98 98 98 98 97 97 97 96 83 82
47 51 53 55 56 59 63 65 65 64 63 62 60 60 60 65 64 66 70 72 80 79 81 86 97 98 98 99 100 100 98 98 98 98 98 98 98 97 97 97 90 82 79
51 54 55 59 64 64 64 67 68 67 66 66 69 67 69 64 64 69 72 80 85 82 80 83 94 99 99 100 100 99 98 98 98 98 98 98 98 97 97 89 82 79 82
56 60 62 64 66 68 69 71 72 71 72 73 75 76 72 70 72 73 76 83 82 83 80 88 98 99 100 100 99 98 98 98 98 98 98 98 98 97 90 85 81 83 84
65 64 64 67 71 71 71 71 71 73 76 71 72 75 67 64 71 75 78 81 83 85 85 92 99 100 100 100 99 98 98 97 98 97 97 97 98 94 84 80 76 78 80
64 68 70 72 70 69 69 70 70 71 76 80 79 80 72 71 77 75 76 83 85 82 86 99 99 100 100 100 99 98 98 97 97 97 97 97 96 81 79 79 79 77 71
67 68 69 70 70 69 72 78 80 74 72 74 74 76 79 80 77 76 78 83 84 81 96 95 93 100 100 99 98 98 98 97 97 96 97 96 87 78 74 78 77 68 71
68 73 76 73 73 72 70 70 71 70 68 70 70 76 77 78 79 79 82 86 88 92 98 85 94 100 100 98 98 98 98 97 97 97 96 94 76 80 75 74 64 59 57
78 78 78 78 76 74 75 76 77 73 75 72 75 77 78 82 84 85 84 85 86 97 91 87 99 100 100 98 98 98 97 97 97 97 97 71 68 72 68 61 48 55 61
77 76 75 75 77 78 76 74 73 77 79 79 78 83 83 84 82 83 82 79 83 96 83 90 98 100 98 98 97 98 98 98 97 97 78 60 66 64 53 43 53 61 66
Wind_Speed
18 19 22 23 23 23 24 25 27 28 29 30 29 28 25 27 28 28 29 31 31 34 34 33 35 37 35 32 32 33 33 32 15 29 30 27 31 36 37 37 36 34 33
19 21 20 21 22 23 24 25 26 27 28 28 31 30 29 29 29 29 31 30 30 30 32 34 37 38 37 33 32 33 33 34 28 19 30 25 27 29 33 34 34 32 34
21 20 21 21 22 23 25 26 27 28 30 30 29 29 29 30 31 31 31 31 30 29 29 30 33 34 36 36 35 36 35 34 32 27 27 27 26 25 23 28 31 30 29
21 21 22 22 23 25 26 28 29 29 30 30 31 31 32 32 31 32 32 29 27 27 29 30 32 34 35 35 35 36 35 33 30 28 29 26 15 17 21 18 15 25 26
22 22 24 22 25 27 30 31 32 31 31 32 32 32 32 30 28 31 37 33 28 28 29 31 32 34 37 41 39 37 34 32 30 25 19 17 10 7 17 20 20 21 24
21 22 23 22 23 25 26 27 28 29 30 31 33 31 31 30 32 37 37 33 28 26 27 31 32 33 33 35 39 42 46 40 30 25 21 13 18 23 19 22 18 7 4
22 23 22 25 25 26 27 27 27 27 28 29 29 30 29 33 34 35 31 31 25 28 28 30 33 31 32 33 34 37 39 46 48 43 26 24 28 31 28 21 22 15 8
23 21 23 24 25 27 27 27 29 29 28 29 30 28 31 30 30 28 31 29 30 30 29 30 30 32 33 34 35 31 34 34 39 39 36 39 34 28 39 36 26 17 15
18 21 23 24 26 26 27 29 29 30 27 29 27 30 29 32 27 28 32 29 29 31 29 29 31 33 33 36 36 30 32 34 32 38 40 41 39 39 37 30 23 17 3
19 21 23 25 26 27 28 30 30 29 31 28 30 29 32 27 28 30 32 26 27 27 30 32 32 33 34 35 35 31 26 31 31 29 22 20 21 22 28 35 35 13 6
22 23 24 25 27 27 29 31 29 33 30 33 30 31 27 27 30 30 32 30 24 28 31 31 33 35 39 42 41 38 34 37 27 22 18 18 22 21 19 19 25 30 14
24 25 26 27 28 28 29 28 31 29 32 29 28 26 25 29 30 31 34 31 28 29 32 33 35 40 48 47 42 38 41 37 20 19 16 17 18 20 23 19 19 16 15
23 24 24 26 26 27 27 29 30 26 28 25 24 24 29 33 31 32 31 32 34 33 33 36 44 45 44 40 36 38 37 20 19 14 14 13 19 25 26 24 19 18 15
23 24 24 25 27 26 27 25 27 27 25 24 25 26 30 32 33 31 31 34 35 35 35 39 39 37 31 30 33 30 19 19 15 11 12 18 24 23 25 23 20 18 15
23 24 25 24 25 28 26 27 27 26 26 29 28 29 29 28 32 36 36 36 36 39 42 31 29 29 26 25 21 10 5 2 4 10 13 15 18 18 21 20 17 15 6
23 22 23 25 25 27 27 29 27 28 31 32 33 31 32 32 37 36 37 37 42 38 27 23 23 25 23 22 14 9 4 4 8 13 14 15 16 14 17 18 17 12 10
24 25 25 25 25 24 24 24 24 32 30 29 28 30 30 35 35 37 36 38 35 28 20 22 22 24 24 22 17 8 4 7 11 16 15 15 15 13 14 15 14 14 12
26 25 25 24 23 24 24 25 25 24 24 28 26 30 30 31 37 36 33 36 26 24 21 21 24 26 26 23 22 11 9 12 15 17 18 20 19 14 11 12 13 12 11
25 24 24 24 24 25 25 25 25 24 23 25 26 26 25 31 34 31 31 24 25 24 25 23 27 27 29 26 19 9 11 13 16 17 19 19 19 18 12 12 15 14 13
23 25 26 24 23 23 23 23 23 23 22 22 22 22 27 28 26 29 28 26 24 26 26 25 29 29 29 26 18 8 8 11 14 17 16 18 20 18 14 15 16 14 11
25 24 25 26 22 22 23 23 22 22 21 23 23 24 28 28 24 26 26 26 25 28 27 27 30 29 30 25 17 10 9 10 11 13 16 17 19 16 17 18 16 13 10
25 25 23 22 23 24 24 25 24 24 23 23 24 23 26 24 22 23 25 25 27 27 28 28 31 29 29 26 18 10 11 13 15 18 19 19 18 19 19 18 15 12 9
24 23 23 25 24 26 26 24 22 23 24 24 24 24 22 20 22 23 24 26 28 29 29 30 31 31 30 27 19 12 14 16 19 23 22 21 18 20 19 17 14 12 8
24 24 24 26 25 26 24 24 24 24 26 23 24 22 22 21 21 23 25 28 28 27 28 33 31 31 32 25 16 9 11 15 21 24 24 22 21 17 17 15 13 10 9
26 27 25 25 25 24 24 23 21 22 22 24 24 22 21 21 23 23 26 28 28 25 32 34 30 31 29 21 12 7 9 15 22 24 22 22 22 20 18 16 13 12 12
27 27 27 26 25 24 22 21 22 21 21 22 23 22 22 23 24 26 27 28 25 30 34 33 33 30 25 15 6 5 10 17 22 22 23 23 22 19 18 17 15 16 16
Wind_Direction
1 358 353 353 357 357 353 349 346 341 339 335 332 326 322 317 311 304 297 292 284 274 268 261 257 256 252 248 244 246 245 243 249 262 254 253 245 237 231 232 229 233 225
1 353 350 348 348 346 343 341 339 335 332 329 325 322 320 317 313 308 302 294 288 286 285 281 275 269 261 251 243 244 245 247 247 258 259 248 242 235 230 222 226 229 224
2 357 354 351 350 346 342 337 333 330 328 326 324 320 317 315 312 309 302 295 290 289 289 290 289 283 274 265 250 246 244 243 241 247 258 253 234 232 221 226 227 224 232
351 348 347 346 345 340 336 334 330 328 323 322 320 318 317 316 313 309 307 312 314 304 295 288 284 281 279 274 266 254 246 244 243 240 248 246 212 210 215 200 200 219 209
347 347 340 339 338 334 331 328 325 323 320 320 317 315 314 314 311 314 323 320 318 310 304 298 290 284 282 280 275 271 265 248 247 243 244 226 184 173 195 211 210 204 203
341 340 333 339 335 327 321 319 316 315 317 316 312 315 316 315 316 316 316 321 322 318 310 306 298 292 290 290 286 284 274 261 262 250 241 223 217 215 205 202 187 170 191
339 333 341 339 332 327 324 322 319 319 320 312 317 310 314 314 313 312 327 337 332 319 312 311 307 298 295 296 294 291 284 277 266 259 260 238 223 211 202 193 192 193 173
332 341 340 331 327 326 324 323 322 322 316 321 314 317 311 310 308 333 336 338 327 320 317 314 310 314 312 303 300 294 290 277 264 259 255 255 249 219 210 208 194 154 131
340 337 330 326 323 323 323 321 321 316 319 315 315 312 309 307 330 333 337 333 326 320 320 320 316 311 308 309 312 302 310 284 271 261 258 257 248 227 209 180 153 158 134
333 327 324 324 321 320 318 319 317 316 315 311 312 309 308 324 333 334 333 327 322 320 320 316 312 309 310 312 311 311 301 295 273 251 250 252 235 206 189 196 168 157 124
326 325 325 324 321 320 318 318 319 317 314 313 309 307 321 326 330 326 326 325 324 326 318 315 312 308 310 308 307 300 291 290 261 221 190 169 160 156 160 170 160 163 146
328 328 324 322 322 319 317 317 317 318 310 310 310 320 319 327 321 319 319 318 326 320 313 311 310 307 305 301 300 294 293 296 218 179 160 153 147 139 150 154 161 173 174
323 319 317 318 320 319 320 319 315 316 316 309 321 322 320 316 314 315 315 317 320 318 311 308 306 303 302 299 295 293 295 241 189 176 172 160 148 146 146 143 144 147 133
317 316 318 319 319 318 316 314 315 311 312 320 318 315 313 312 310 314 315 318 319 319 316 313 310 311 312 306 304 296 275 211 188 177 157 144 142 142 133 148 143 146 127
318 318 317 317 316 313 311 309 307 307 314 312 312 308 307 305 307 312 318 319 318 315 315 317 325 328 327 322 312 310 347 90 140 131 127 132 136 149 139 148 150 150 140
315 313 312 313 310 308 308 309 308 307 309 308 307 306 306 308 311 318 323 321 319 319 320 324 325 327 328 321 315 319 3 90 128 138 133 137 139 147 143 140 148 160 152
306 307 307 306 302 303 305 308 309 311 310 311 313 314 320 311 318 323 326 325 324 329 326 325 324 325 321 318 300 262 208 180 168 151 140 134 132 137 153 142 153 155 139
301 299 299 298 298 300 302 302 304 306 308 313 318 317 320 319 320 325 329 330 327 334 327 326 322 322 322 316 312 257 191 164 152 144 140 137 141 147 163 151 157 146 144
298 298 298 299 299 301 305 303 302 304 308 308 312 317 319 320 320 324 330 327 323 328 328 326 324 323 323 318 311 256 195 170 157 145 144 151 144 149 152 151 148 156 162
301 299 302 302 302 304 304 303 304 304 305 309 309 310 316 319 325 326 327 325 327 327 326 327 325 323 323 319 306 260 193 166 154 154 154 143 141 141 147 147 154 156 157
297 296 300 304 300 301 302 299 298 299 300 302 302 306 314 321 320 318 320 322 326 326 326 326 323 322 325 321 297 250 202 174 163 145 134 136 135 134 146 154 160 157 146
299 297 298 298 301 300 297 297 300 300 297 295 300 303 309 312 308 314 317 319 326 326 323 318 327 321 324 323 303 245 201 172 156 142 139 134 136 143 148 151 150 142 127
297 297 298 297 296 298 298 295 298 300 300 301 301 301 303 305 308 313 316 319 324 325 324 331 324 322 329 332 319 264 212 176 162 159 143 139 144 148 154 154 146 132 124
300 297 295 296 296 295 299 298 295 298 301 301 304 304 303 304 307 312 317 320 324 321 327 328 322 322 329 333 320 273 207 184 174 168 162 154 146 150 155 145 133 127 101
297 295 294 293 293 292 293 294 295 302 305 306 301 302 305 306 309 312 320 322 324 324 330 329 323 324 331 334 312 246 203 185 174 168 161 155 151 157 150 133 125 105 85
295 294 293 292 292 292 293 296 298 296 298 300 302 301 302 304 307 313 319 323 324 328 330 328 327 330 334 337 306 231 173 169 167 165 158 154 155 148 137 123 117 104 91